Year,Month,Day,Hour,Minute,Value (Times are PST for temperature in C)
2007,07,11,00,00,21.10
2007,07,11,00,01,21.10
2007,07,11,00,02,21.10
2007,07,11,00,03,21.10
2007,07,11,00,04,21.10
2007,07,11,00,05,21.10
2007,07,11,00,06,21.00
2007,07,11,00,07,21.00
2007,07,11,00,08,21.00
2007,07,11,00,09,21.00
2007,07,11,00,10,21.00
2007,07,11,00,11,21.00
2007,07,11,00,12,21.00
2007,07,11,00,13,21.00
2007,07,11,00,14,21.00
2007,07,11,00,15,21.00
2007,07,11,00,16,21.00
2007,07,11,00,17,21.00
2007,07,11,00,18,21.00
2007,07,11,00,19,21.00
2007,07,11,00,20,21.00
2007,07,11,00,21,21.00
2007,07,11,00,22,21.00
2007,07,11,00,23,21.00
2007,07,11,00,24,21.00
2007,07,11,00,25,21.00
2007,07,11,00,26,21.00
2007,07,11,00,27,21.00
2007,07,11,00,28,21.00
2007,07,11,00,29,21.00
2007,07,11,00,30,21.00
2007,07,11,00,31,20.90
2007,07,11,00,32,21.00
2007,07,11,00,33,20.90
2007,07,11,00,34,20.90
2007,07,11,00,35,20.90
2007,07,11,00,36,20.90
2007,07,11,00,37,20.90
2007,07,11,00,38,20.80
2007,07,11,00,39,20.80
2007,07,11,00,40,20.80
2007,07,11,00,41,20.80
2007,07,11,00,42,20.80
2007,07,11,00,43,20.80
2007,07,11,00,44,20.70
2007,07,11,00,45,20.70
2007,07,11,00,46,20.70
2007,07,11,00,47,20.70
2007,07,11,00,48,20.70
2007,07,11,00,49,20.60
2007,07,11,00,50,20.60
2007,07,11,00,51,20.60
2007,07,11,00,52,20.50
2007,07,11,00,53,20.50
2007,07,11,00,54,20.40
2007,07,11,00,55,20.40
2007,07,11,00,56,20.40
2007,07,11,00,57,20.40
2007,07,11,00,58,20.30
2007,07,11,00,59,20.30
2007,07,11,01,00,20.30
2007,07,11,01,01,20.30
2007,07,11,01,02,20.20
2007,07,11,01,03,20.20
2007,07,11,01,04,20.20
2007,07,11,01,05,20.10
2007,07,11,01,06,20.10
2007,07,11,01,07,20.00
2007,07,11,01,08,20.00
2007,07,11,01,09,20.00
2007,07,11,01,10,19.90
2007,07,11,01,11,19.90
2007,07,11,01,12,19.90
2007,07,11,01,13,19.90
2007,07,11,01,14,19.80
2007,07,11,01,15,19.80
2007,07,11,01,16,19.80
2007,07,11,01,17,19.80
2007,07,11,01,18,19.80
2007,07,11,01,19,19.70
2007,07,11,01,20,19.70
2007,07,11,01,21,19.70
2007,07,11,01,22,19.70
2007,07,11,01,23,19.60
2007,07,11,01,24,19.60
2007,07,11,01,25,19.50
2007,07,11,01,26,19.40
2007,07,11,01,27,19.40
2007,07,11,01,28,19.40
2007,07,11,01,29,19.40
2007,07,11,01,30,19.40
2007,07,11,01,31,19.40
2007,07,11,01,32,19.50
2007,07,11,01,33,19.50
2007,07,11,01,34,19.50
2007,07,11,01,35,19.50
2007,07,11,01,36,19.50
2007,07,11,01,37,19.50
2007,07,11,01,38,19.50
2007,07,11,01,39,19.50
2007,07,11,01,40,19.50
2007,07,11,01,41,19.40
2007,07,11,01,42,19.40
2007,07,11,01,43,19.40
2007,07,11,01,44,19.40
2007,07,11,01,45,19.40
2007,07,11,01,46,19.40
2007,07,11,01,47,19.40
2007,07,11,01,48,19.50
2007,07,11,01,49,19.50
2007,07,11,01,50,19.50
2007,07,11,01,51,19.50
2007,07,11,01,52,19.50
2007,07,11,01,53,19.50
2007,07,11,01,54,19.50
2007,07,11,01,55,19.50
2007,07,11,01,56,19.40
2007,07,11,01,57,19.40
2007,07,11,01,58,19.40
2007,07,11,01,59,19.40
2007,07,11,02,00,19.40
2007,07,11,02,01,19.40
2007,07,11,02,02,19.40
2007,07,11,02,03,19.30
2007,07,11,02,04,19.40
2007,07,11,02,05,19.40
2007,07,11,02,06,19.40
2007,07,11,02,07,19.40
2007,07,11,02,08,19.50
2007,07,11,02,09,19.50
2007,07,11,02,10,19.60
2007,07,11,02,11,19.70
2007,07,11,02,12,19.80
2007,07,11,02,13,19.80
2007,07,11,02,14,19.80
2007,07,11,02,15,19.90
2007,07,11,02,16,19.90
2007,07,11,02,17,20.00
2007,07,11,02,18,20.10
2007,07,11,02,19,20.20
2007,07,11,02,20,20.20
2007,07,11,02,21,20.30
2007,07,11,02,22,20.30
2007,07,11,02,23,20.30
2007,07,11,02,24,20.30
2007,07,11,02,25,20.30
2007,07,11,02,26,20.30
2007,07,11,02,27,20.30
2007,07,11,02,28,20.30
2007,07,11,02,29,20.30
2007,07,11,02,30,20.30
2007,07,11,02,31,20.30
2007,07,11,02,32,20.30
2007,07,11,02,33,20.30
2007,07,11,02,34,20.30
2007,07,11,02,35,20.30
2007,07,11,02,36,20.30
2007,07,11,02,37,20.30
2007,07,11,02,38,20.40
2007,07,11,02,39,20.40
2007,07,11,02,40,20.50
2007,07,11,02,41,20.60
2007,07,11,02,42,20.70
2007,07,11,02,43,20.80
2007,07,11,02,44,21.00
2007,07,11,02,45,21.10
2007,07,11,02,46,21.10
2007,07,11,02,47,21.20
2007,07,11,02,48,21.30
2007,07,11,02,49,21.40
2007,07,11,02,50,21.50
2007,07,11,02,51,21.60
2007,07,11,02,52,21.70
2007,07,11,02,53,21.70
2007,07,11,02,54,21.80
2007,07,11,02,55,21.80
2007,07,11,02,56,21.80
2007,07,11,02,57,21.90
2007,07,11,02,58,21.90
2007,07,11,02,59,22.00
2007,07,11,03,00,22.00
2007,07,11,03,01,22.00
2007,07,11,03,02,22.00
2007,07,11,03,03,21.90
2007,07,11,03,04,22.00
2007,07,11,03,05,22.00
2007,07,11,03,06,21.90
2007,07,11,03,07,21.90
2007,07,11,03,08,21.90
2007,07,11,03,09,21.80
2007,07,11,03,10,21.80
2007,07,11,03,11,21.80
2007,07,11,03,12,21.80
2007,07,11,03,13,21.80
2007,07,11,03,14,21.80
2007,07,11,03,15,21.80
2007,07,11,03,16,21.90
2007,07,11,03,17,21.90
2007,07,11,03,18,21.90
2007,07,11,03,19,21.90
2007,07,11,03,20,21.90
2007,07,11,03,21,21.90
2007,07,11,03,22,21.90
2007,07,11,03,23,21.90
2007,07,11,03,24,21.90
2007,07,11,03,25,21.90
2007,07,11,03,26,21.90
2007,07,11,03,27,21.80
2007,07,11,03,28,21.80
2007,07,11,03,29,21.80
2007,07,11,03,30,21.80
2007,07,11,03,31,21.80
2007,07,11,03,32,21.80
2007,07,11,03,33,21.80
2007,07,11,03,34,21.80
2007,07,11,03,35,21.80
2007,07,11,03,36,21.70
2007,07,11,03,37,21.70
2007,07,11,03,38,21.70
2007,07,11,03,39,21.70
2007,07,11,03,40,21.70
2007,07,11,03,41,21.60
2007,07,11,03,42,21.60
2007,07,11,03,43,21.60
2007,07,11,03,44,21.60
2007,07,11,03,45,21.60
2007,07,11,03,46,21.60
2007,07,11,03,47,21.60
2007,07,11,03,48,21.60
2007,07,11,03,49,21.60
2007,07,11,03,50,21.60
2007,07,11,03,51,21.60
2007,07,11,03,52,21.60
2007,07,11,03,53,21.60
2007,07,11,03,54,21.50
2007,07,11,03,55,21.50
2007,07,11,03,56,21.50
2007,07,11,03,57,21.50
2007,07,11,03,58,21.50
2007,07,11,03,59,21.40
2007,07,11,04,00,21.40
2007,07,11,04,01,21.40
2007,07,11,04,02,21.40
2007,07,11,04,03,21.40
2007,07,11,04,04,21.40
2007,07,11,04,05,21.30
2007,07,11,04,06,21.30
2007,07,11,04,07,21.30
2007,07,11,04,08,21.30
2007,07,11,04,09,21.30
2007,07,11,04,10,21.30
2007,07,11,04,11,21.30
2007,07,11,04,12,21.30
2007,07,11,04,13,21.30
2007,07,11,04,14,21.20
2007,07,11,04,15,21.20
2007,07,11,04,16,21.20
2007,07,11,04,17,21.20
2007,07,11,04,18,21.20
2007,07,11,04,19,21.10
2007,07,11,04,20,21.10
2007,07,11,04,21,21.10
2007,07,11,04,22,21.10
2007,07,11,04,23,21.10
2007,07,11,04,24,21.10
2007,07,11,04,25,21.10
2007,07,11,04,26,21.00
2007,07,11,04,27,21.00
2007,07,11,04,28,21.00
2007,07,11,04,29,21.00
2007,07,11,04,30,21.00
2007,07,11,04,31,21.00
2007,07,11,04,32,21.00
2007,07,11,04,33,21.00
2007,07,11,04,34,21.00
2007,07,11,04,35,21.00
2007,07,11,04,36,21.00
2007,07,11,04,37,21.00
2007,07,11,04,38,21.00
2007,07,11,04,39,21.00
2007,07,11,04,40,21.00
2007,07,11,04,41,21.00
2007,07,11,04,42,21.00
2007,07,11,04,43,21.00
2007,07,11,04,44,21.00
2007,07,11,04,45,21.00
2007,07,11,04,46,21.00
2007,07,11,04,47,21.00
2007,07,11,04,48,21.00
2007,07,11,04,49,21.00
2007,07,11,04,50,21.00
2007,07,11,04,51,21.10
2007,07,11,04,52,21.10
2007,07,11,04,53,21.10
2007,07,11,04,54,21.10
2007,07,11,04,55,21.00
2007,07,11,04,56,21.00
2007,07,11,04,57,21.00
2007,07,11,04,58,21.00
2007,07,11,04,59,21.00
2007,07,11,05,00,20.90
2007,07,11,05,01,20.90
2007,07,11,05,02,20.90
2007,07,11,05,03,20.90
2007,07,11,05,04,20.90
2007,07,11,05,05,20.90
2007,07,11,05,06,20.90
2007,07,11,05,07,20.90
2007,07,11,05,08,20.90
2007,07,11,05,09,20.90
2007,07,11,05,10,20.90
2007,07,11,05,11,20.90
2007,07,11,05,12,20.80
2007,07,11,05,13,20.80
2007,07,11,05,14,20.90
2007,07,11,05,15,20.90
2007,07,11,05,16,20.90
2007,07,11,05,17,20.90
2007,07,11,05,18,20.90
2007,07,11,05,19,20.80
2007,07,11,05,20,20.80
2007,07,11,05,21,20.80
2007,07,11,05,22,20.80
2007,07,11,05,23,20.80
2007,07,11,05,24,20.80
2007,07,11,05,25,20.80
2007,07,11,05,26,20.80
2007,07,11,05,27,20.80
2007,07,11,05,28,20.80
2007,07,11,05,29,20.80
2007,07,11,05,30,20.80
2007,07,11,05,31,20.80
2007,07,11,05,32,20.70
2007,07,11,05,33,20.70
2007,07,11,05,34,20.70
2007,07,11,05,35,20.70
2007,07,11,05,36,20.70
2007,07,11,05,37,20.70
2007,07,11,05,38,20.70
2007,07,11,05,39,20.60
2007,07,11,05,40,20.70
2007,07,11,05,41,20.70
2007,07,11,05,42,20.60
2007,07,11,05,43,20.60
2007,07,11,05,44,20.60
2007,07,11,05,45,20.60
2007,07,11,05,46,20.60
2007,07,11,05,47,20.60
2007,07,11,05,48,20.60
2007,07,11,05,49,20.60
2007,07,11,05,50,20.60
2007,07,11,05,51,20.60
2007,07,11,05,52,20.60
2007,07,11,05,53,20.60
2007,07,11,05,54,20.60
2007,07,11,05,55,20.60
2007,07,11,05,56,20.60
2007,07,11,05,57,20.60
2007,07,11,05,58,20.70
2007,07,11,05,59,20.70
2007,07,11,06,00,20.70
2007,07,11,06,01,20.70
2007,07,11,06,02,20.70
2007,07,11,06,03,20.70
2007,07,11,06,04,20.70
2007,07,11,06,05,20.70
2007,07,11,06,06,20.70
2007,07,11,06,07,20.70
2007,07,11,06,08,20.70
2007,07,11,06,09,20.60
2007,07,11,06,10,20.60
2007,07,11,06,11,20.60
2007,07,11,06,12,20.70
2007,07,11,06,13,20.70
2007,07,11,06,14,20.70
2007,07,11,06,15,20.70
2007,07,11,06,16,20.70
2007,07,11,06,17,20.70
2007,07,11,06,18,20.70
2007,07,11,06,19,20.70
2007,07,11,06,20,20.80
2007,07,11,06,21,20.80
2007,07,11,06,22,20.80
2007,07,11,06,23,20.80
2007,07,11,06,24,20.80
2007,07,11,06,25,20.80
2007,07,11,06,26,20.80
2007,07,11,06,27,20.80
2007,07,11,06,28,20.80
2007,07,11,06,29,20.80
2007,07,11,06,30,20.70
2007,07,11,06,31,20.70
2007,07,11,06,32,20.70
2007,07,11,06,33,20.70
2007,07,11,06,34,20.60
2007,07,11,06,35,20.60
2007,07,11,06,36,20.60
2007,07,11,06,37,20.60
2007,07,11,06,38,20.60
2007,07,11,06,39,20.70
2007,07,11,06,40,20.70
2007,07,11,06,41,20.70
2007,07,11,06,42,20.70
2007,07,11,06,43,20.70
2007,07,11,06,44,20.70
2007,07,11,06,45,20.70
2007,07,11,06,46,20.70
2007,07,11,06,47,20.70
2007,07,11,06,48,20.70
2007,07,11,06,49,20.70
2007,07,11,06,50,20.70
2007,07,11,06,51,20.70
2007,07,11,06,52,20.80
2007,07,11,06,53,20.80
2007,07,11,06,54,20.80
2007,07,11,06,55,20.80
2007,07,11,06,56,20.90
2007,07,11,06,57,20.90
2007,07,11,06,58,21.00
2007,07,11,06,59,21.00
2007,07,11,07,00,21.00
2007,07,11,07,01,21.00
2007,07,11,07,02,21.00
2007,07,11,07,03,21.00
2007,07,11,07,04,21.00
2007,07,11,07,05,21.00
2007,07,11,07,06,21.00
2007,07,11,07,07,21.00
2007,07,11,07,08,21.10
2007,07,11,07,09,21.10
2007,07,11,07,10,21.10
2007,07,11,07,11,21.10
2007,07,11,07,12,21.20
2007,07,11,07,13,21.30
2007,07,11,07,14,21.30
2007,07,11,07,15,21.40
2007,07,11,07,16,21.40
2007,07,11,07,17,21.50
2007,07,11,07,18,21.50
2007,07,11,07,19,21.60
2007,07,11,07,20,21.60
2007,07,11,07,21,21.70
2007,07,11,07,22,21.70
2007,07,11,07,23,21.80
2007,07,11,07,24,21.80
2007,07,11,07,25,21.80
2007,07,11,07,26,21.80
2007,07,11,07,27,21.80
2007,07,11,07,28,21.80
2007,07,11,07,29,21.80
2007,07,11,07,30,21.80
2007,07,11,07,31,21.80
2007,07,11,07,32,21.80
2007,07,11,07,33,21.80
2007,07,11,07,34,21.80
2007,07,11,07,35,21.80
2007,07,11,07,36,21.80
2007,07,11,07,37,21.80
2007,07,11,07,38,21.80
2007,07,11,07,39,21.70
2007,07,11,07,40,21.70
2007,07,11,07,41,21.70
2007,07,11,07,42,21.70
2007,07,11,07,43,21.70
2007,07,11,07,44,21.70
2007,07,11,07,45,21.70
2007,07,11,07,46,21.70
2007,07,11,07,47,21.80
2007,07,11,07,48,21.80
2007,07,11,07,49,21.80
2007,07,11,07,50,21.90
2007,07,11,07,51,21.90
2007,07,11,07,52,21.90
2007,07,11,07,53,21.90
2007,07,11,07,54,21.90
2007,07,11,07,55,21.90
2007,07,11,07,56,21.90
2007,07,11,07,57,21.90
2007,07,11,07,58,21.90
2007,07,11,07,59,21.90
2007,07,11,08,00,21.90
2007,07,11,08,01,21.80
2007,07,11,08,02,21.80
2007,07,11,08,03,21.80
2007,07,11,08,04,21.80
2007,07,11,08,05,21.80
2007,07,11,08,06,21.80
2007,07,11,08,07,21.80
2007,07,11,08,08,21.80
2007,07,11,08,09,21.80
2007,07,11,08,10,21.80
2007,07,11,08,11,21.80
2007,07,11,08,12,21.80
2007,07,11,08,13,21.90
2007,07,11,08,14,22.00
2007,07,11,08,15,22.00
2007,07,11,08,16,22.10
2007,07,11,08,17,22.20
2007,07,11,08,18,22.30
2007,07,11,08,19,22.30
2007,07,11,08,20,22.30
2007,07,11,08,21,22.30
2007,07,11,08,22,22.40
2007,07,11,08,23,22.40
2007,07,11,08,24,22.40
2007,07,11,08,25,22.40
2007,07,11,08,26,22.40
2007,07,11,08,27,22.50
2007,07,11,08,28,22.60
2007,07,11,08,29,22.60
2007,07,11,08,30,22.50
2007,07,11,08,31,22.50
2007,07,11,08,32,22.40
2007,07,11,08,33,22.40
2007,07,11,08,34,22.40
2007,07,11,08,35,22.40
2007,07,11,08,36,22.50
2007,07,11,08,37,22.50
2007,07,11,08,38,22.60
2007,07,11,08,39,22.60
2007,07,11,08,40,22.70
2007,07,11,08,41,22.80
2007,07,11,08,42,22.80
2007,07,11,08,43,22.80
2007,07,11,08,44,22.90
2007,07,11,08,45,23.00
2007,07,11,08,46,23.10
2007,07,11,08,47,23.20
2007,07,11,08,48,23.40
2007,07,11,08,49,23.50
2007,07,11,08,50,23.60
2007,07,11,08,51,23.70
2007,07,11,08,52,23.70
2007,07,11,08,53,23.70
2007,07,11,08,54,23.60
2007,07,11,08,55,23.50
2007,07,11,08,56,23.40
2007,07,11,08,57,23.40
2007,07,11,08,58,23.30
2007,07,11,08,59,23.30
2007,07,11,09,00,23.40
2007,07,11,09,01,23.40
2007,07,11,09,02,23.40
2007,07,11,09,03,23.40
2007,07,11,09,04,23.50
2007,07,11,09,05,23.50
2007,07,11,09,06,23.60
2007,07,11,09,07,23.60
2007,07,11,09,08,23.70
2007,07,11,09,09,23.80
2007,07,11,09,10,23.80
2007,07,11,09,11,23.90
2007,07,11,09,12,24.00
2007,07,11,09,13,24.10
2007,07,11,09,14,24.20
2007,07,11,09,15,24.20
2007,07,11,09,16,24.20
2007,07,11,09,17,24.30
2007,07,11,09,18,24.30
2007,07,11,09,19,24.40
2007,07,11,09,20,24.40
2007,07,11,09,21,24.40
2007,07,11,09,22,24.40
2007,07,11,09,23,24.50
2007,07,11,09,24,24.60
2007,07,11,09,25,24.60
2007,07,11,09,26,24.70
2007,07,11,09,27,24.70
2007,07,11,09,28,24.80
2007,07,11,09,29,24.90
2007,07,11,09,30,24.90
2007,07,11,09,31,24.90
2007,07,11,09,32,24.90
2007,07,11,09,33,24.90
2007,07,11,09,34,24.90
2007,07,11,09,35,25.00
2007,07,11,09,36,25.00
2007,07,11,09,37,25.00
2007,07,11,09,38,25.10
2007,07,11,09,39,25.20
2007,07,11,09,40,25.20
2007,07,11,09,41,25.20
2007,07,11,09,42,25.30
2007,07,11,09,43,25.30
2007,07,11,09,44,25.30
2007,07,11,09,45,25.30
2007,07,11,09,46,25.30
2007,07,11,09,47,25.20
2007,07,11,09,48,25.20
2007,07,11,09,49,25.20
2007,07,11,09,50,25.20
2007,07,11,09,51,25.20
2007,07,11,09,52,25.20
2007,07,11,09,53,25.30
2007,07,11,09,54,25.30
2007,07,11,09,55,25.20
2007,07,11,09,56,25.20
2007,07,11,09,57,25.20
2007,07,11,09,58,25.20
2007,07,11,09,59,25.10
2007,07,11,10,00,25.10
2007,07,11,10,01,25.10
2007,07,11,10,02,25.10
2007,07,11,10,03,25.20
2007,07,11,10,04,25.30
2007,07,11,10,05,25.40
2007,07,11,10,06,25.50
2007,07,11,10,07,25.60
2007,07,11,10,08,25.70
2007,07,11,10,09,25.90
2007,07,11,10,10,26.00
2007,07,11,10,11,26.10
2007,07,11,10,12,26.10
2007,07,11,10,13,26.10
2007,07,11,10,14,26.20
2007,07,11,10,15,26.20
2007,07,11,10,16,26.20
2007,07,11,10,17,26.20
2007,07,11,10,18,26.20
2007,07,11,10,19,26.30
2007,07,11,10,20,26.40
2007,07,11,10,21,26.50
2007,07,11,10,22,26.50
2007,07,11,10,23,26.50
2007,07,11,10,24,26.60
2007,07,11,10,25,26.60
2007,07,11,10,26,26.50
2007,07,11,10,27,26.40
2007,07,11,10,28,26.40
2007,07,11,10,29,26.40
2007,07,11,10,30,26.40
2007,07,11,10,31,26.50
2007,07,11,10,32,26.50
2007,07,11,10,33,26.60
2007,07,11,10,34,26.60
2007,07,11,10,35,26.60
2007,07,11,10,36,26.50
2007,07,11,10,37,26.50
2007,07,11,10,38,26.40
2007,07,11,10,39,26.30
2007,07,11,10,40,26.30
2007,07,11,10,41,26.20
2007,07,11,10,42,26.20
2007,07,11,10,43,26.10
2007,07,11,10,44,26.10
2007,07,11,10,45,26.10
2007,07,11,10,46,26.10
2007,07,11,10,47,26.00
2007,07,11,10,48,26.00
2007,07,11,10,49,26.00
2007,07,11,10,50,25.90
2007,07,11,10,51,25.90
2007,07,11,10,52,25.90
2007,07,11,10,53,25.90
2007,07,11,10,54,25.90
2007,07,11,10,55,25.90
2007,07,11,10,56,26.00
2007,07,11,10,57,26.20
2007,07,11,10,58,26.20
2007,07,11,10,59,26.30
2007,07,11,11,00,26.40
2007,07,11,11,01,26.30
2007,07,11,11,02,26.30
2007,07,11,11,03,26.30
2007,07,11,11,04,26.30
2007,07,11,11,05,26.30
2007,07,11,11,06,26.40
2007,07,11,11,07,26.40
2007,07,11,11,08,26.40
2007,07,11,11,09,26.50
2007,07,11,11,10,26.60
2007,07,11,11,11,26.80
2007,07,11,11,12,26.80
2007,07,11,11,13,26.90
2007,07,11,11,14,26.90
2007,07,11,11,15,27.00
2007,07,11,11,16,27.10
2007,07,11,11,17,27.20
2007,07,11,11,18,27.40
2007,07,11,11,19,27.50
2007,07,11,11,20,27.60
2007,07,11,11,21,27.70
2007,07,11,11,22,27.60
2007,07,11,11,23,27.60
2007,07,11,11,24,27.60
2007,07,11,11,25,27.70
2007,07,11,11,26,27.70
2007,07,11,11,27,27.70
2007,07,11,11,28,27.70
2007,07,11,11,29,27.70
2007,07,11,11,30,27.80
2007,07,11,11,31,28.00
2007,07,11,11,32,28.10
2007,07,11,11,33,28.20
2007,07,11,11,34,28.30
2007,07,11,11,35,28.30
2007,07,11,11,36,28.30
2007,07,11,11,37,28.30
2007,07,11,11,38,28.40
2007,07,11,11,39,28.50
2007,07,11,11,40,28.60
2007,07,11,11,41,28.70
2007,07,11,11,42,28.70
2007,07,11,11,43,28.70
2007,07,11,11,44,28.70
2007,07,11,11,45,28.80
2007,07,11,11,46,28.80
2007,07,11,11,47,28.90
2007,07,11,11,48,29.00
2007,07,11,11,49,29.10
2007,07,11,11,50,29.20
2007,07,11,11,51,29.30
2007,07,11,11,52,29.20
2007,07,11,11,53,29.20
2007,07,11,11,54,29.20
2007,07,11,11,55,29.30
2007,07,11,11,56,29.40
2007,07,11,11,57,29.50
2007,07,11,11,58,29.40
2007,07,11,11,59,29.50
2007,07,11,12,00,29.60
2007,07,11,12,01,29.70
2007,07,11,12,02,29.80
2007,07,11,12,03,29.90
2007,07,11,12,04,29.90
2007,07,11,12,05,29.90
2007,07,11,12,06,29.90
2007,07,11,12,07,29.80
2007,07,11,12,08,29.90
2007,07,11,12,09,29.90
2007,07,11,12,10,29.80
2007,07,11,12,11,29.80
2007,07,11,12,12,29.90
2007,07,11,12,13,29.90
2007,07,11,12,14,29.90
2007,07,11,12,15,29.90
2007,07,11,12,16,29.80
2007,07,11,12,17,29.80
2007,07,11,12,18,29.80
2007,07,11,12,19,29.80
2007,07,11,12,20,29.70
2007,07,11,12,21,29.60
2007,07,11,12,22,29.60
2007,07,11,12,23,29.60
2007,07,11,12,24,29.60
2007,07,11,12,25,29.60
2007,07,11,12,26,29.60
2007,07,11,12,27,29.60
2007,07,11,12,28,29.50
2007,07,11,12,29,29.60
2007,07,11,12,30,29.60
2007,07,11,12,31,29.50
2007,07,11,12,32,29.50
2007,07,11,12,33,29.40
2007,07,11,12,34,29.50
2007,07,11,12,35,29.60
2007,07,11,12,36,29.60
2007,07,11,12,37,29.70
2007,07,11,12,38,29.80
2007,07,11,12,39,29.90
2007,07,11,12,40,29.80
2007,07,11,12,41,29.90
2007,07,11,12,42,29.90
2007,07,11,12,43,30.00
2007,07,11,12,44,30.10
2007,07,11,12,45,30.10
2007,07,11,12,46,30.20
2007,07,11,12,47,30.30
2007,07,11,12,48,30.20
2007,07,11,12,49,30.20
2007,07,11,12,50,30.20
2007,07,11,12,51,30.20
2007,07,11,12,52,30.20
2007,07,11,12,53,30.10
2007,07,11,12,54,30.10
2007,07,11,12,55,30.20
2007,07,11,12,56,30.30
2007,07,11,12,57,30.30
2007,07,11,12,58,30.40
2007,07,11,12,59,30.30
2007,07,11,13,00,30.30
2007,07,11,13,01,30.20
2007,07,11,13,02,30.20
2007,07,11,13,03,30.10
2007,07,11,13,04,30.10
2007,07,11,13,05,30.10
2007,07,11,13,06,30.00
2007,07,11,13,07,30.00
2007,07,11,13,08,29.90
2007,07,11,13,09,29.90
2007,07,11,13,10,29.90
2007,07,11,13,11,30.00
2007,07,11,13,12,30.00
2007,07,11,13,13,30.00
2007,07,11,13,14,30.00
2007,07,11,13,15,30.10
2007,07,11,13,16,30.20
2007,07,11,13,17,30.20
2007,07,11,13,18,30.20
2007,07,11,13,19,30.20
2007,07,11,13,20,30.20
2007,07,11,13,21,30.20
2007,07,11,13,22,30.20
2007,07,11,13,23,30.30
2007,07,11,13,24,30.30
2007,07,11,13,25,30.30
2007,07,11,13,26,30.30
2007,07,11,13,27,30.30
2007,07,11,13,28,30.30
2007,07,11,13,29,30.40
2007,07,11,13,30,30.40
2007,07,11,13,31,30.40
2007,07,11,13,32,30.40
2007,07,11,13,33,30.40
2007,07,11,13,34,30.40
2007,07,11,13,35,30.40
2007,07,11,13,36,30.30
2007,07,11,13,37,30.20
2007,07,11,13,38,30.20
2007,07,11,13,39,30.20
2007,07,11,13,40,30.30
2007,07,11,13,41,30.40
2007,07,11,13,42,30.40
2007,07,11,13,43,30.30
2007,07,11,13,44,30.30
2007,07,11,13,45,30.30
2007,07,11,13,46,30.30
2007,07,11,13,47,30.40
2007,07,11,13,48,30.40
2007,07,11,13,49,30.40
2007,07,11,13,50,30.50
2007,07,11,13,51,30.60
2007,07,11,13,52,30.70
2007,07,11,13,53,30.70
2007,07,11,13,54,30.70
2007,07,11,13,55,30.60
2007,07,11,13,56,30.70
2007,07,11,13,57,30.70
2007,07,11,13,58,30.60
2007,07,11,13,59,30.60
2007,07,11,14,00,30.70
2007,07,11,14,01,30.80
2007,07,11,14,02,30.80
2007,07,11,14,03,30.90
2007,07,11,14,04,31.00
2007,07,11,14,05,31.00
2007,07,11,14,06,31.00
2007,07,11,14,07,31.10
2007,07,11,14,08,30.90
2007,07,11,14,09,30.90
2007,07,11,14,10,30.90
2007,07,11,14,11,31.00
2007,07,11,14,12,31.10
2007,07,11,14,13,31.20
2007,07,11,14,14,31.20
2007,07,11,14,15,31.10
2007,07,11,14,16,31.00
2007,07,11,14,17,31.00
2007,07,11,14,18,31.10
2007,07,11,14,19,31.10
2007,07,11,14,20,31.00
2007,07,11,14,21,30.90
2007,07,11,14,22,30.80
2007,07,11,14,23,30.80
2007,07,11,14,24,30.80
2007,07,11,14,25,30.80
2007,07,11,14,26,30.90
2007,07,11,14,27,31.00
2007,07,11,14,28,31.00
2007,07,11,14,29,31.00
2007,07,11,14,30,31.00
2007,07,11,14,31,31.10
2007,07,11,14,32,31.10
2007,07,11,14,33,31.20
2007,07,11,14,34,31.40
2007,07,11,14,35,31.40
2007,07,11,14,36,31.40
2007,07,11,14,37,31.40
2007,07,11,14,38,31.40
2007,07,11,14,39,31.40
2007,07,11,14,40,31.50
2007,07,11,14,41,31.60
2007,07,11,14,42,31.60
2007,07,11,14,43,31.60
2007,07,11,14,44,31.70
2007,07,11,14,45,31.80
2007,07,11,14,46,31.90
2007,07,11,14,47,32.00
2007,07,11,14,48,32.10
2007,07,11,14,49,32.20
2007,07,11,14,50,32.30
2007,07,11,14,51,32.40
2007,07,11,14,52,32.40
2007,07,11,14,53,32.40
2007,07,11,14,54,32.40
2007,07,11,14,55,32.30
2007,07,11,14,56,32.30
2007,07,11,14,57,32.40
2007,07,11,14,58,32.50
2007,07,11,14,59,32.60
2007,07,11,15,00,32.70
2007,07,11,15,01,32.80
2007,07,11,15,02,32.80
2007,07,11,15,03,32.70
2007,07,11,15,04,32.70
2007,07,11,15,05,32.70
2007,07,11,15,06,32.80
2007,07,11,15,07,32.90
2007,07,11,15,08,32.90
2007,07,11,15,09,33.00
2007,07,11,15,10,33.10
2007,07,11,15,11,33.10
2007,07,11,15,12,33.10
2007,07,11,15,13,33.00
2007,07,11,15,14,32.90
2007,07,11,15,15,32.90
2007,07,11,15,16,32.80
2007,07,11,15,17,32.80
2007,07,11,15,18,32.70
2007,07,11,15,19,32.70
2007,07,11,15,20,32.80
2007,07,11,15,21,32.80
2007,07,11,15,22,32.90
2007,07,11,15,23,33.00
2007,07,11,15,24,33.20
2007,07,11,15,25,33.20
2007,07,11,15,26,33.20
2007,07,11,15,27,33.20
2007,07,11,15,28,33.20
2007,07,11,15,29,33.20
2007,07,11,15,30,33.20
2007,07,11,15,31,33.20
2007,07,11,15,32,33.30
2007,07,11,15,33,33.40
2007,07,11,15,34,33.30
2007,07,11,15,35,33.30
2007,07,11,15,36,33.20
2007,07,11,15,37,33.20
2007,07,11,15,38,33.20
2007,07,11,15,39,33.10
2007,07,11,15,40,33.00
2007,07,11,15,41,33.00
2007,07,11,15,42,33.00
2007,07,11,15,43,32.90
2007,07,11,15,44,32.90
2007,07,11,15,45,32.90
2007,07,11,15,46,32.80
2007,07,11,15,47,32.80
2007,07,11,15,48,32.80
2007,07,11,15,49,32.80
2007,07,11,15,50,32.80
2007,07,11,15,51,32.70
2007,07,11,15,52,32.50
2007,07,11,15,53,32.40
2007,07,11,15,54,32.30
2007,07,11,15,55,32.30
2007,07,11,15,56,32.20
2007,07,11,15,57,32.20
2007,07,11,15,58,32.20
2007,07,11,15,59,32.20
2007,07,11,16,00,32.10
2007,07,11,16,01,32.10
2007,07,11,16,02,32.10
2007,07,11,16,03,32.00
2007,07,11,16,04,32.00
2007,07,11,16,05,31.90
2007,07,11,16,06,32.00
2007,07,11,16,07,32.10
2007,07,11,16,08,32.10
2007,07,11,16,09,32.10
2007,07,11,16,10,32.10
2007,07,11,16,11,32.10
2007,07,11,16,12,32.00
2007,07,11,16,13,31.90
2007,07,11,16,14,31.90
2007,07,11,16,15,31.90
2007,07,11,16,16,31.90
2007,07,11,16,17,31.90
2007,07,11,16,18,31.90
2007,07,11,16,19,31.90
2007,07,11,16,20,31.90
2007,07,11,16,21,31.90
2007,07,11,16,22,31.90
2007,07,11,16,23,32.00
2007,07,11,16,24,32.00
2007,07,11,16,25,31.90
2007,07,11,16,26,31.80
2007,07,11,16,27,31.80
2007,07,11,16,28,31.80
2007,07,11,16,29,31.90
2007,07,11,16,30,31.90
2007,07,11,16,31,31.90
2007,07,11,16,32,31.90
2007,07,11,16,33,31.90
2007,07,11,16,34,32.00
2007,07,11,16,35,32.10
2007,07,11,16,36,32.10
2007,07,11,16,37,32.10
2007,07,11,16,38,32.10
2007,07,11,16,39,32.00
2007,07,11,16,40,32.00
2007,07,11,16,41,31.90
2007,07,11,16,42,31.90
2007,07,11,16,43,31.90
2007,07,11,16,44,31.90
2007,07,11,16,45,31.90
2007,07,11,16,46,31.90
2007,07,11,16,47,31.90
2007,07,11,16,48,31.80
2007,07,11,16,49,31.80
2007,07,11,16,50,31.70
2007,07,11,16,51,31.60
2007,07,11,16,52,31.60
2007,07,11,16,53,31.60
2007,07,11,16,54,31.60
2007,07,11,16,55,31.60
2007,07,11,16,56,31.80
2007,07,11,16,57,31.80
2007,07,11,16,58,31.80
2007,07,11,16,59,31.80
2007,07,11,17,00,31.70
2007,07,11,17,01,31.60
2007,07,11,17,02,31.60
2007,07,11,17,03,31.50
2007,07,11,17,04,31.30
2007,07,11,17,05,31.10
2007,07,11,17,06,30.90
2007,07,11,17,07,30.80
2007,07,11,17,08,30.70
2007,07,11,17,09,30.60
2007,07,11,17,10,30.50
2007,07,11,17,11,30.40
2007,07,11,17,12,30.30
2007,07,11,17,13,30.30
2007,07,11,17,14,30.20
2007,07,11,17,15,30.20
2007,07,11,17,16,30.20
2007,07,11,17,17,30.10
2007,07,11,17,18,30.10
2007,07,11,17,19,30.00